Date String (YYYY-MM-DD hh:mm:ss) UTC,Instrument flags,absolute air pressure of the measurement (hPa),sample flow rate (lpm),inlet stack bypass flow (lpm),air temperature of the measurement (°C),ambient temperature measured by the external sensor (°C),aerosol sample conditioner tube jacket temperature (°C),OPC LED temperature (°C),internal box temperature (°C),relative humidity of the measurement (%),span deviation,mass concentration of particles derived from Lorenz-Mie calculation of OPC scattering (μg/m³),mass concentration of particles derived from Lorenz-Mie calculation of OPC scattering (μg/m³),mass concentration of particles derived from Lorenz-Mie calculation of OPC scattering (μg/m³)
DateTimeUTC,F1_M11,P_M11,Q1_M11,Q2_M11,T1_M11,T2_M11,T3_M11,T4_M11,T5_M11,U1_M11,ZSPAN_M11,X2_M11,X0_M11,X1_M11
2023-12-28 01:00:00,SystemResetWarning,0832.6,5.00,000.00,023.3,022.4,000.0,031.7,024.6,8.9,0000.0,0001.45,0006.96,0000.77
2023-12-28 01:01:00,SystemResetWarning,0832.5,5.00,000.00,023.3,022.3,000.0,031.7,024.6,8.9,0000.0,0001.39,0006.24,0000.76
2023-12-28 01:02:00,SystemResetWarning,0832.6,4.99,000.00,023.3,022.3,000.0,031.7,024.5,8.9,0000.0,0001.39,0005.81,0000.78
2023-12-28 01:03:00,SystemResetWarning,0832.5,5.00,000.00,023.3,022.3,000.0,031.7,024.5,8.9,0000.0,0001.33,0006.80,0000.76
2023-12-28 01:04:00,SystemResetWarning,0832.5,5.00,000.00,023.3,022.3,000.0,031.7,024.5,8.9,0000.0,0001.30,0006.38,0000.74
2023-12-28 01:05:00,SystemResetWarning,0832.6,4.99,000.00,023.3,022.3,000.0,031.7,024.5,8.9,0000.0,0001.27,0006.03,0000.73
2023-12-28 01:06:00,SystemResetWarning,0832.6,5.00,000.00,023.3,022.3,000.0,031.7,024.5,8.9,0000.0,0001.26,0006.48,0000.71
2023-12-28 01:07:00,SystemResetWarning,0832.5,5.00,000.00,023.3,022.3,000.0,031.7,024.5,8.9,0000.0,0001.27,0006.96,0000.70
2023-12-28 01:08:00,SystemResetWarning,0832.5,5.00,000.00,023.3,022.3,000.0,031.7,024.5,8.9,0000.0,0001.22,0006.37,0000.71
2023-12-28 01:09:00,SystemResetWarning,0832.6,5.00,000.00,023.3,022.3,000.0,031.6,024.5,8.9,0000.0,0001.23,0006.04,0000.74
2023-12-28 01:10:00,SystemResetWarning,0832.5,5.00,000.00,023.3,022.3,000.0,031.6,024.5,8.9,0000.0,0001.24,0006.16,0000.75
2023-12-28 01:11:00,SystemResetWarning,0832.5,5.00,000.00,023.3,022.3,000.0,031.6,024.5,9.0,0000.0,0001.29,0006.26,0000.76
2023-12-28 01:12:00,SystemResetWarning,0832.5,5.00,000.00,023.2,022.3,000.0,031.6,024.5,9.0,0000.0,0001.35,0005.60,0000.78
2023-12-28 01:13:00,SystemResetWarning,0832.5,4.99,000.00,023.2,022.3,000.0,031.6,024.5,9.1,0000.0,0001.34,0005.34,0000.78
2023-12-28 01:14:00,SystemResetWarning,0832.5,5.00,000.00,023.2,022.3,000.0,031.6,024.5,9.0,0000.0,0001.39,0004.29,0000.80
2023-12-28 01:15:00,SystemResetWarning,0832.5,4.99,000.00,023.2,022.2,000.0,031.6,024.4,9.0,0000.0,0001.39,0004.04,0000.81
2023-12-28 01:16:00,SystemResetWarning,0832.5,5.00,000.00,023.2,022.2,000.0,031.6,024.4,9.0,0000.0,0001.42,0004.59,0000.82
2023-12-28 01:17:00,SystemResetWarning,0832.5,5.00,000.00,023.2,022.2,000.0,031.6,024.4,9.0,0000.0,0001.36,0004.01,0000.85
2023-12-28 01:18:00,SystemResetWarning,0832.5,5.00,000.00,023.2,022.2,000.0,031.6,024.3,9.0,0000.0,0001.34,0003.39,0000.87
2023-12-28 01:19:00,SystemResetWarning,0832.6,5.00,000.00,023.2,022.2,000.0,031.6,024.3,9.0,0000.0,0001.38,0003.39,0000.88
2023-12-28 01:20:00,SystemResetWarning,0832.6,5.01,000.00,023.1,022.1,000.0,031.6,024.4,9.0,0000.0,0001.39,0003.46,0000.87
2023-12-28 01:21:00,SystemResetWarning,0832.6,5.00,000.00,023.1,022.1,000.0,031.5,024.4,9.0,0000.0,0001.40,0003.72,0000.87
2023-12-28 01:22:00,SystemResetWarning,0832.6,4.99,000.00,023.1,022.1,000.0,031.5,024.3,9.0,0000.0,0001.43,0004.50,0000.88
2023-12-28 01:23:00,SystemResetWarning,0832.6,4.99,000.00,023.1,022.1,000.0,031.5,024.3,9.0,0000.0,0001.38,0004.47,0000.87
2023-12-28 01:24:00,SystemResetWarning,0832.6,5.00,000.00,023.1,022.1,000.0,031.5,024.3,9.0,0000.0,0001.40,0004.53,0000.85
2023-12-28 01:25:00,SystemResetWarning,0832.6,5.00,000.00,023.1,022.1,000.0,031.5,024.3,9.0,0000.0,0001.35,0004.45,0000.84
2023-12-28 01:26:00,SystemResetWarning,0832.6,5.00,000.00,023.1,022.1,000.0,031.5,024.3,9.1,0000.0,0001.36,0005.26,0000.83
2023-12-28 01:27:00,SystemResetWarning,0832.6,5.00,000.00,023.1,022.1,000.0,031.5,024.3,9.1,0000.0,0001.36,0005.84,0000.83
2023-12-28 01:28:00,SystemResetWarning,0832.6,5.00,000.00,023.0,022.0,000.0,031.5,024.2,9.1,0000.0,0001.42,0005.91,0000.82
2023-12-28 01:29:00,SystemResetWarning,0832.6,5.00,000.00,023.0,022.0,000.0,031.5,024.2,9.1,0000.0,0001.45,0005.89,0000.81
2023-12-28 01:30:00,SystemResetWarning,0832.6,5.00,000.00,023.0,022.0,000.0,031.4,024.2,9.2,0000.0,0001.46,0005.82,0000.81
2023-12-28 01:31:00,SystemResetWarning,0832.6,5.00,000.00,023.0,021.9,000.0,031.4,024.2,9.2,0000.0,0001.43,0005.67,0000.82
2023-12-28 01:32:00,SystemResetWarning,0832.7,5.00,000.00,023.0,021.9,000.0,031.4,024.2,9.2,0000.0,0001.45,0005.68,0000.83
2023-12-28 01:33:00,SystemResetWarning,0832.6,5.00,000.00,022.9,021.9,000.0,031.4,024.2,9.3,0000.0,0001.46,0006.47,0000.84
2023-12-28 01:34:00,SystemResetWarning,0832.6,5.00,000.00,022.9,021.9,000.0,031.4,024.1,9.3,0000.0,0001.53,0007.13,0000.88
2023-12-28 01:35:00,SystemResetWarning,0832.6,5.00,000.00,022.9,021.9,000.0,031.4,024.1,9.3,0000.0,0001.54,0007.64,0000.93
2023-12-28 01:36:00,SystemResetWarning,0832.6,5.00,000.00,022.9,021.9,000.0,031.4,024.1,9.3,0000.0,0001.62,0007.68,0000.97
2023-12-28 01:37:00,SystemResetWarning,0832.6,5.00,000.00,022.9,021.9,000.0,031.3,024.1,9.4,0000.0,0001.66,0007.44,0001.02
2023-12-28 01:38:00,SystemResetWarning,0832.7,5.00,000.00,022.9,021.9,000.0,031.3,024.1,9.5,0000.0,0001.67,0006.87,0001.05
2023-12-28 01:39:00,SystemResetWarning,0832.7,5.00,000.00,022.9,021.9,000.0,031.3,024.0,9.5,0000.0,0001.67,0007.37,0001.08
2023-12-28 01:40:00,SystemResetWarning,0832.6,5.00,000.00,022.9,021.9,000.0,031.3,024.0,9.5,0000.0,0001.67,0007.38,0001.11
2023-12-28 01:41:00,SystemResetWarning,0832.7,5.00,000.00,022.9,021.9,000.0,031.3,024.0,9.5,0000.0,0001.70,0007.39,0001.13
2023-12-28 01:42:00,SystemResetWarning,0832.7,5.00,000.00,022.9,021.9,000.0,031.3,024.0,9.5,0000.0,0001.76,0007.45,0001.17
2023-12-28 01:43:00,SystemResetWarning,0832.7,5.00,000.00,022.8,021.8,000.0,031.3,023.9,9.5,0000.0,0001.80,0007.47,0001.20
2023-12-28 01:44:00,SystemResetWarning,0832.7,5.00,000.00,022.8,021.8,000.0,031.3,023.9,9.5,0000.0,0001.83,0006.95,0001.24
2023-12-28 01:45:00,SystemResetWarning,0832.7,5.00,000.00,022.8,021.8,000.0,031.2,024.0,9.5,0000.0,0001.77,0005.49,0001.25
2023-12-28 01:46:00,SystemResetWarning,0832.7,5.00,000.00,022.8,021.8,000.0,031.2,024.0,9.5,0000.0,0001.77,0005.33,0001.25
2023-12-28 01:47:00,SystemResetWarning,0832.6,5.00,000.00,022.8,021.8,000.0,031.2,024.0,9.5,0000.0,0001.74,0005.70,0001.23
2023-12-28 01:48:00,SystemResetWarning,0832.7,5.00,000.00,022.8,021.8,000.0,031.2,024.0,9.5,0000.0,0001.75,0005.90,0001.21
2023-12-28 01:49:00,SystemResetWarning,0832.7,5.00,000.00,022.8,021.8,000.0,031.2,024.0,9.6,0000.0,0001.81,0006.30,0001.19
2023-12-28 01:50:00,SystemResetWarning,0832.7,5.00,000.00,022.8,021.8,000.0,031.2,024.1,9.6,0000.0,0001.84,0005.85,0001.19
2023-12-28 01:51:00,SystemResetWarning,0832.6,5.00,000.00,022.8,021.8,000.0,031.2,024.1,9.6,0000.0,0001.88,0005.72,0001.20
2023-12-28 01:52:00,SystemResetWarning,0832.6,5.00,000.00,022.8,021.8,000.0,031.2,024.1,9.6,0000.0,0001.85,0005.62,0001.19
2023-12-28 01:53:00,SystemResetWarning,0832.7,5.00,000.00,022.8,021.8,000.0,031.2,024.1,9.5,0000.0,0001.81,0005.79,0001.18
2023-12-28 01:54:00,SystemResetWarning,0832.7,5.00,000.00,022.8,021.9,000.0,031.2,024.1,9.5,0000.0,0001.79,0006.97,0001.16
2023-12-28 01:55:00,SystemResetWarning,0832.7,5.00,000.00,022.8,021.9,000.0,031.2,024.1,9.5,0000.0,0001.76,0006.84,0001.15
2023-12-28 01:56:00,SystemResetWarning,0832.7,4.99,000.00,022.9,021.9,000.0,031.2,024.1,9.4,0000.0,0001.80,0007.69,0001.15
2023-12-28 01:57:00,SystemResetWarning,0832.7,5.00,000.00,022.9,021.9,000.0,031.2,024.1,9.4,0000.0,0001.84,0007.62,0001.16
2023-12-28 01:58:00,SystemResetWarning,0832.7,5.00,000.00,022.9,021.9,000.0,031.2,024.1,9.4,0000.0,0001.86,0006.83,0001.18
2023-12-28 01:59:00,SystemResetWarning,0832.8,5.00,000.00,022.9,021.9,000.0,031.2,024.1,9.4,0000.0,0001.85,0006.65,0001.19
